Retour au catalogue

STARLINK-36425

ActifCommunicationsVLEO
NORAD 67467·PAYLOAD·🇺🇸 United States

Lancé Jan 14, 2026 depuis Cape Canaveral Space Force Station

Loading…

Prochains Passages (prochaines 24 heures)

TLE

FraisSource: CelesTrak SupGP

Époque: Sep 15, 2026, 03:04 UTC

1 67467C 26008Y   26258.12826389 -.00041810  00000+0 -15146-2 0  2580
2 67467  43.0028 215.6492 0001363 272.2941   5.6024 15.27593866    18

Suivez STARLINK-36425 en temps réel avec AllMySat

Download on the App Store